Regional Weather Roundup
Issued by NWS Goodland, KS

Home | Current Version | Previous Version | Text Only | Print | Product List | Glossary Off
Versions: 1 2 3 4 5 6 7 8 9 10 11 12 13 14 15 16 17 18 19 20 21 22 23 24 25 26 27 28 29 30 31 32 33 34 35 36 37 38 39 40 41 42 43 44 45 46 47 48 49 50

000
ASUS43 KGLD 231759
RWRGLD

GOODLAND FORECAST AREA HOURLY WEATHER ROUNDUP
NATIONAL WEATHER SERVICE GOODLAND KS
1100 AM MST SUN NOV 23 2014

...OFFICIAL OBSERVATIONS...

CITY           SKY/WX    TMP DP  RH WIND       PRES   REMARKS
GOODLAND KS    CLOUDY    44  16  32 N31G43    29.70F
HILL CITY KS   CLOUDY    46  28  49 N28G39    29.63F
IMPERIAL NEB   CLOUDY    44  15  31 N26G33    29.73F
MCCOOK NEB     CLOUDY    48  20  32 N26G43    29.67F
AKRON CO       CLOUDY    40  14  34 N32G41    29.77S
BURLINGTON CO  PTSUNNY   43  11  27 N33G47    29.72F
LIMON CO       CLOUDY    36  17  46 N25G36    29.76F
$$

...UNOFFICIAL OBSERVATIONS...

CITY           SKY/WX    TMP DP  RH WIND       PRES   REMARKS
COLBY KS       MOSUNNY   45  27  49 N23G31    29.68F
GOVE KS          N/A     46  32  58 MISG        N/A
NORTON KS      CLOUDY    48  23  37 N30G40    29.63F
SHARON SPRINGS   N/A     45  18  33 NE24G35     N/A
TRIBUNE KS     CLOUDY    46  23  39 N31G40    29.69F
TRENTON NEB      N/A     44  32  63 N20         N/A
YUMA CO          N/A     42  11  28 N26G33      N/A
$$


USA.gov is the U.S. government's official web portal to all federal, state and local government web resources and services.